Time,TemperatureF,DewpointF,PressureIn,WindDirection,WindDirectionDegrees,WindSpeedMPH,WindSpeedGustMPH,Humidity,HourlyPrecipIn,Conditions,Clouds,dailyrainin,SolarRadiationWatts/m^2,SoftwareType,DateUTC
2013-04-02 00:22:00,34.0,31.0,-100.00,NE,51,3.0,6.0,89,0.01,,,0.04,0.000000,,2013-04-02 06:22:00,
2013-04-02 00:32:00,34.0,31.0,-100.00,NE,51,3.0,6.0,89,0.01,,,0.04,0.000000,,2013-04-02 06:32:00,
2013-04-02 00:42:00,34.0,31.0,-100.00,NE,51,3.0,6.0,89,0.01,,,0.04,0.000000,,2013-04-02 06:42:00,
2013-04-02 00:52:00,34.0,31.0,-100.00,NE,51,3.0,6.0,89,0.01,,,0.04,0.000000,,2013-04-02 06:52:00,
2013-04-02 01:22:00,33.0,32.0,-100.00,NNE,22,3.0,6.0,95,0.00,,,0.04,0.000000,,2013-04-02 07:22:00,
2013-04-02 01:32:00,33.0,32.0,-100.00,NNE,22,3.0,6.0,95,0.00,,,0.04,0.000000,,2013-04-02 07:32:00,
2013-04-02 01:42:00,33.0,32.0,-100.00,NNE,22,3.0,6.0,95,0.00,,,0.04,0.000000,,2013-04-02 07:42:00,
2013-04-02 01:52:00,33.0,32.0,-100.00,NNE,22,3.0,6.0,95,0.00,,,0.04,0.000000,,2013-04-02 07:52:00,
2013-04-02 02:22:00,33.0,31.0,-100.00,NNE,19,2.0,5.0,94,0.00,,,0.04,0.000000,,2013-04-02 08:22:00,
2013-04-02 02:32:00,33.0,31.0,-100.00,NNE,19,2.0,5.0,94,0.00,,,0.04,0.000000,,2013-04-02 08:32:00,
2013-04-02 02:42:00,33.0,31.0,-100.00,NNE,19,2.0,5.0,94,0.00,,,0.04,0.000000,,2013-04-02 08:42:00,
2013-04-02 02:52:00,33.0,31.0,-100.00,NNE,19,2.0,5.0,94,0.00,,,0.04,0.000000,,2013-04-02 08:52:00,
2013-04-02 03:22:00,33.0,31.0,-100.00,NNW,346,2.0,4.0,92,0.00,,,0.04,0.000000,,2013-04-02 09:22:00,
2013-04-02 03:32:00,33.0,31.0,-100.00,NNW,346,2.0,4.0,92,0.00,,,0.04,0.000000,,2013-04-02 09:32:00,
2013-04-02 03:43:00,33.0,31.0,-100.00,NNW,346,2.0,4.0,92,0.00,,,0.04,0.000000,,2013-04-02 09:43:00,
2013-04-02 03:52:00,33.0,31.0,-100.00,NNW,346,2.0,4.0,92,0.00,,,0.04,0.000000,,2013-04-02 09:52:00,
2013-04-02 04:23:00,33.0,31.0,-100.00,NW,323,2.0,4.0,94,0.00,,,0.04,0.000000,,2013-04-02 10:23:00,
2013-04-02 04:33:00,33.0,31.0,-100.00,NW,323,2.0,4.0,94,0.00,,,0.04,0.000000,,2013-04-02 10:33:00,
2013-04-02 04:42:00,33.0,31.0,-100.00,NW,323,2.0,4.0,94,0.00,,,0.04,0.000000,,2013-04-02 10:42:00,
2013-04-02 04:52:00,33.0,31.0,-100.00,NW,323,2.0,4.0,94,0.00,,,0.04,0.000000,,2013-04-02 10:52:00,
2013-04-02 05:22:00,34.0,33.0,-100.00,South,185,0.0,3.0,95,0.00,,,0.04,0.000000,,2013-04-02 11:22:00,
2013-04-02 05:33:00,34.0,33.0,-100.00,South,185,0.0,3.0,95,0.00,,,0.04,0.000000,,2013-04-02 11:33:00,
2013-04-02 05:43:00,34.0,33.0,-100.00,South,185,0.0,3.0,95,0.00,,,0.04,0.000000,,2013-04-02 11:43:00,
2013-04-02 05:52:00,34.0,33.0,-100.00,South,185,0.0,3.0,95,0.00,,,0.04,0.000000,,2013-04-02 11:52:00,
2013-04-02 06:23:00,34.0,33.0,-100.00,West,274,0.0,2.0,95,0.00,,,0.04,0.000000,,2013-04-02 12:23:00,
2013-04-02 06:32:00,34.0,33.0,-100.00,West,274,0.0,2.0,95,0.00,,,0.04,0.000000,,2013-04-02 12:32:00,
2013-04-02 06:42:00,34.0,33.0,-100.00,West,274,0.0,2.0,95,0.00,,,0.04,0.000000,,2013-04-02 12:42:00,
2013-04-02 06:52:00,34.0,33.0,-100.00,West,274,0.0,2.0,95,0.00,,,0.04,0.000000,,2013-04-02 12:52:00,
2013-04-02 07:22:00,33.0,31.0,-100.00,NNE,21,5.0,10.0,91,0.01,,,0.05,1.000000,,2013-04-02 13:22:00,
2013-04-02 07:33:00,33.0,31.0,-100.00,NNE,21,5.0,10.0,91,0.01,,,0.05,1.000000,,2013-04-02 13:33:00,
2013-04-02 07:42:00,33.0,31.0,-100.00,NNE,21,5.0,10.0,91,0.01,,,0.05,1.000000,,2013-04-02 13:42:00,
2013-04-02 07:52:00,33.0,31.0,-100.00,NNE,21,5.0,10.0,91,0.01,,,0.05,1.000000,,2013-04-02 13:52:00,
2013-04-02 08:23:00,34.0,32.0,-100.00,South,190,2.0,6.0,93,0.00,,,0.05,22.000000,,2013-04-02 14:23:00,
2013-04-02 08:32:00,34.0,32.0,-100.00,South,190,2.0,6.0,93,0.00,,,0.05,22.000000,,2013-04-02 14:32:00,
2013-04-02 08:42:00,34.0,32.0,-100.00,South,190,2.0,6.0,93,0.00,,,0.05,22.000000,,2013-04-02 14:42:00,
2013-04-02 08:52:00,34.0,32.0,-100.00,South,190,2.0,6.0,93,0.00,,,0.05,22.000000,,2013-04-02 14:52:00,
2013-04-02 09:22:00,37.0,34.0,-100.00,WNW,287,1.0,3.0,88,0.00,,,0.05,79.000000,,2013-04-02 15:22:00,
2013-04-02 09:33:00,37.0,34.0,-100.00,WNW,287,1.0,3.0,88,0.00,,,0.05,79.000000,,2013-04-02 15:33:00,
2013-04-02 09:43:00,37.0,34.0,-100.00,WNW,287,1.0,3.0,88,0.00,,,0.05,79.000000,,2013-04-02 15:43:00,
2013-04-02 09:55:00,37.0,34.0,-100.00,WNW,287,1.0,3.0,88,0.00,,,0.05,79.000000,,2013-04-02 15:55:00,
2013-04-02 10:24:00,37.0,32.0,-100.00,NNE,13,5.0,11.0,82,0.00,,,0.05,147.000000,,2013-04-02 16:24:00,
2013-04-02 10:36:00,37.0,32.0,-100.00,NNE,13,5.0,11.0,82,0.00,,,0.05,147.000000,,2013-04-02 16:36:00,
2013-04-02 10:43:00,37.0,32.0,-100.00,NNE,13,5.0,11.0,82,0.00,,,0.05,147.000000,,2013-04-02 16:43:00,
2013-04-02 11:25:00,36.0,31.0,-100.00,NNE,29,6.0,12.0,81,0.00,,,-99.99,106.000000,,2013-04-02 17:25:00,
2013-04-02 11:34:00,36.0,31.0,-100.00,NNE,29,6.0,12.0,81,0.00,,,-99.99,106.000000,,2013-04-02 17:34:00,
2013-04-02 11:43:00,36.0,31.0,-100.00,NNE,29,6.0,12.0,81,0.00,,,-99.99,106.000000,,2013-04-02 17:43:00,
2013-04-02 11:54:00,36.0,31.0,-100.00,NNE,29,6.0,12.0,81,0.00,,,-99.99,106.000000,,2013-04-02 17:54:00,
2013-04-02 12:23:00,35.0,31.0,-100.00,NNE,25,3.0,9.0,86,0.01,,,0.06,85.000000,,2013-04-02 18:23:00,
2013-04-02 12:34:00,35.0,31.0,-100.00,NNE,25,3.0,9.0,86,0.01,,,0.06,85.000000,,2013-04-02 18:34:00,
2013-04-02 12:43:00,35.0,31.0,-100.00,NNE,25,3.0,9.0,86,0.01,,,0.06,85.000000,,2013-04-02 18:43:00,
2013-04-02 12:54:00,35.0,31.0,-100.00,NNE,25,3.0,9.0,86,0.01,,,0.06,85.000000,,2013-04-02 18:54:00,
2013-04-02 13:23:00,37.0,33.0,-100.00,NE,35,5.0,8.0,84,0.00,,,0.06,183.000000,,2013-04-02 19:23:00,
2013-04-02 13:34:00,37.0,33.0,-100.00,NE,35,5.0,8.0,84,0.00,,,0.06,183.000000,,2013-04-02 19:34:00,
2013-04-02 13:45:00,37.0,33.0,-100.00,NE,35,5.0,8.0,84,0.00,,,0.06,183.000000,,2013-04-02 19:45:00,
2013-04-02 13:53:00,37.0,33.0,-100.00,NE,35,5.0,8.0,84,0.00,,,0.06,183.000000,,2013-04-02 19:53:00,
2013-04-02 14:22:00,37.0,33.0,-100.00,NNE,26,4.0,9.0,85,0.01,,,0.07,153.000000,,2013-04-02 20:22:00,
2013-04-02 14:33:00,37.0,33.0,-100.00,NNE,26,4.0,9.0,85,0.01,,,0.07,153.000000,,2013-04-02 20:33:00,
2013-04-02 14:44:00,37.0,33.0,-100.00,NNE,26,4.0,9.0,85,0.01,,,0.07,153.000000,,2013-04-02 20:44:00,
2013-04-02 14:53:00,37.0,33.0,-100.00,NNE,26,4.0,9.0,85,0.01,,,0.07,153.000000,,2013-04-02 20:53:00,
2013-04-02 15:23:00,36.0,34.0,-100.00,NNE,17,5.0,11.0,91,0.00,,,0.07,130.000000,,2013-04-02 21:23:00,
2013-04-02 15:34:00,36.0,34.0,-100.00,NNE,17,5.0,11.0,91,0.00,,,0.07,130.000000,,2013-04-02 21:34:00,
2013-04-02 15:44:00,36.0,34.0,-100.00,NNE,17,5.0,11.0,91,0.00,,,0.07,130.000000,,2013-04-02 21:44:00,
2013-04-02 15:54:00,36.0,34.0,-100.00,NNE,17,5.0,11.0,91,0.00,,,0.07,130.000000,,2013-04-02 21:54:00,
2013-04-02 16:24:00,36.0,33.0,-100.00,North,353,2.0,9.0,90,0.00,,,0.07,91.000000,,2013-04-02 22:24:00,
2013-04-02 16:33:00,36.0,33.0,-100.00,North,353,2.0,9.0,90,0.00,,,0.07,91.000000,,2013-04-02 22:33:00,
2013-04-02 16:43:00,36.0,33.0,-100.00,North,353,2.0,9.0,90,0.00,,,0.07,91.000000,,2013-04-02 22:43:00,
2013-04-02 16:53:00,36.0,33.0,-100.00,North,353,2.0,9.0,90,0.00,,,0.07,91.000000,,2013-04-02 22:53:00,
2013-04-02 17:23:00,36.0,34.0,-100.00,NW,316,2.0,4.0,93,0.03,,,0.10,65.000000,,2013-04-02 23:23:00,
2013-04-02 17:35:00,36.0,34.0,-100.00,NW,316,2.0,4.0,93,0.03,,,0.10,65.000000,,2013-04-02 23:35:00,
2013-04-02 17:43:00,36.0,34.0,-100.00,NW,316,2.0,4.0,93,0.03,,,0.10,65.000000,,2013-04-02 23:43:00,
2013-04-02 17:52:00,36.0,34.0,-100.00,NW,316,2.0,4.0,93,0.03,,,0.10,65.000000,,2013-04-02 23:52:00,
2013-04-02 18:24:00,36.0,34.0,-100.00,NNW,336,3.0,5.0,94,0.02,,,0.12,56.000000,,2013-04-03 00:24:00,
2013-04-02 18:33:00,36.0,34.0,-100.00,NNW,336,3.0,5.0,94,0.02,,,0.12,56.000000,,2013-04-03 00:33:00,
2013-04-02 18:46:00,36.0,34.0,-100.00,NNW,336,3.0,5.0,94,0.02,,,0.12,56.000000,,2013-04-03 00:46:00,
2013-04-02 18:53:00,36.0,34.0,-100.00,NNW,336,3.0,5.0,94,0.02,,,0.12,56.000000,,2013-04-03 00:53:00,
2013-04-02 19:22:00,36.0,35.0,-100.00,NNW,332,2.0,5.0,95,0.04,,,0.16,31.000000,,2013-04-03 01:22:00,
2013-04-02 19:33:00,36.0,35.0,-100.00,NNW,332,2.0,5.0,95,0.04,,,0.16,31.000000,,2013-04-03 01:33:00,
2013-04-02 19:42:00,36.0,35.0,-100.00,NNW,332,2.0,5.0,95,0.04,,,0.16,31.000000,,2013-04-03 01:42:00,
2013-04-02 19:52:00,36.0,35.0,-100.00,NNW,332,2.0,5.0,95,0.04,,,0.16,31.000000,,2013-04-03 01:52:00,
2013-04-02 20:24:00,35.0,34.0,-100.00,NNW,334,2.0,3.0,96,0.01,,,0.17,3.000000,,2013-04-03 02:24:00,
2013-04-02 20:34:00,35.0,34.0,-100.00,NNW,334,2.0,3.0,96,0.01,,,0.17,3.000000,,2013-04-03 02:34:00,
2013-04-02 20:43:00,35.0,34.0,-100.00,NNW,334,2.0,3.0,96,0.01,,,0.17,3.000000,,2013-04-03 02:43:00,
2013-04-02 20:52:00,35.0,34.0,-100.00,NNW,334,2.0,3.0,96,0.01,,,0.17,3.000000,,2013-04-03 02:52:00,
2013-04-02 21:23:00,36.0,35.0,-100.00,North,357,2.0,3.0,97,0.01,,,0.17,0.000000,,2013-04-03 03:23:00,
2013-04-02 21:37:00,36.0,35.0,-100.00,North,357,2.0,3.0,97,0.01,,,0.17,0.000000,,2013-04-03 03:37:00,
2013-04-02 21:43:00,36.0,35.0,-100.00,North,357,2.0,3.0,97,0.01,,,0.17,0.000000,,2013-04-03 03:43:00,
2013-04-02 21:53:00,36.0,35.0,-100.00,North,357,2.0,3.0,97,0.01,,,0.17,0.000000,,2013-04-03 03:53:00,
2013-04-02 22:23:00,35.0,34.0,-100.00,WNW,297,1.0,3.0,97,0.00,,,0.15,0.000000,,2013-04-03 04:23:00,
2013-04-02 22:33:00,35.0,34.0,-100.00,WNW,297,1.0,3.0,97,0.00,,,0.15,0.000000,,2013-04-03 04:33:00,
2013-04-02 22:43:00,35.0,34.0,-100.00,WNW,297,1.0,3.0,97,0.00,,,0.15,0.000000,,2013-04-03 04:43:00,
2013-04-02 22:53:00,35.0,34.0,-100.00,WNW,297,1.0,3.0,97,0.00,,,0.15,0.000000,,2013-04-03 04:53:00,
2013-04-02 23:22:00,34.0,33.0,-100.00,North,351,0.0,3.0,97,0.00,,,0.15,0.000000,,2013-04-03 05:22:00,
2013-04-02 23:32:00,34.0,33.0,-100.00,North,351,0.0,3.0,97,0.00,,,0.15,0.000000,,2013-04-03 05:32:00,
2013-04-02 23:42:00,34.0,33.0,-100.00,North,351,0.0,3.0,97,0.00,,,0.15,0.000000,,2013-04-03 05:42:00,
2013-04-02 23:52:00,34.0,33.0,-100.00,North,351,0.0,3.0,97,0.00,,,0.15,0.000000,,2013-04-03 05:52:00,